FW5674 Weather Reports


time (UTC)temp
C
wind
direction
speed
KPH
gust
KPH
rain 1hr
cm
rain 24hr
cm
rain mn
cm
humidity
%
barometer
mb
20260504044540 14 0 0.0 6.4 0.00 0.00 0.00 63 1007.6
20260504043040 15 360 0.0 4.8 0.00 0.00 0.00 62 1007.7
20260504041542 15 0 0.0 8.0 0.00 0.00 0.00 62 1007.6
20260504040041 15 360 1.6 4.8 0.00 0.00 0.00 61 1007.8
20260504034540 15 360 0.0 6.4 0.00 0.00 0.00 60 1007.9
20260504033035 15 360 0.0 12.9 0.00 0.00 0.00 59 1008.0
20260504031534 16 0 0.0 4.8 0.00 0.00 0.00 58 1008.2
20260504030043 16 0 0.0 8.0 0.00 0.00 0.00 57 1008.3
20260504024539 16 0 1.6 8.0 0.00 0.00 0.00 56 1008.3
20260504023036 16 360 1.6 8.0 0.00 0.00 0.00 55 1008.2
20260504021536 17 360 1.6 8.0 0.00 0.00 0.00 54 1008.1
20260504020037 17 0 0.0 6.4 0.00 0.00 0.00 53 1007.9
20260504014539 17 360 1.6 9.7 0.00 0.00 0.00 52 1007.8
20260504013042 17 360 1.6 12.9 0.00 0.00 0.00 50 1007.5
20260504011542 18 187 3.2 16.1 0.00 0.00 0.00 49 1007.4
20260504010037 18 360 3.2 8.0 0.00 0.00 0.00 48 1007.5
20260504004536 18 360 3.2 17.7 0.00 0.00 0.00 47 1007.6
20260504003038 19 360 3.2 19.3 0.00 0.00 0.00 46 1007.5
20260504001542 19 360 3.2 16.1 0.00 0.00 0.00 45 1007.5
20260504000041 19 360 3.2 19.3 0.00 0.00 0.00 44 1007.3
20260503234545 19 182 1.6 12.9 0.00 0.00 0.00 44 1007.5
20260503233037 20 360 1.6 16.1 0.00 0.00 0.00 43 1007.5
20260503231542 20 360 4.8 19.3 0.00 0.00 0.00 41 1007.5
20260503230043 20 360 4.8 20.9 0.00 0.00 0.00 41 1007.8
20260503224540 20 197 4.8 20.9 0.00 0.00 0.00 41 1008.0
20260503223039 20 360 6.4 25.7 0.00 0.00 0.00 41 1008.3
20260503221536 20 360 4.8 24.1 0.00 0.00 0.00 41 1008.4
20260503220045 19 360 8.0 22.5 0.00 0.00 0.00 40 1008.5
20260503214540 19 360 4.8 33.8 0.00 0.00 0.00 40 1008.7
20260503213042 20 360 8.0 30.6 0.00 0.00 0.00 38 1008.8
20260503211538 20 360 4.8 29.0 0.00 0.00 0.00 37 1009.2
20260503210038 20 175 8.0 32.2 0.00 0.00 0.00 37 1009.3
20260503204534 20 360 6.4 22.5 0.00 0.00 0.00 38 1009.7
20260503203041 19 360 9.7 30.6 0.00 0.00 0.00 39 1009.9
20260503201541 18 360 6.4 25.7 0.00 0.00 0.00 42 1010.2
20260503200043 18 360 11.3 24.1 0.00 0.00 0.00 43 1010.5
20260503194538 18 360 8.0 19.3 0.00 0.00 0.00 46 1010.5
20260503193036 17 360 6.4 20.9 0.00 0.00 0.00 48 1010.9
20260503191540 16 360 9.7 24.1 0.00 0.00 0.00 48 1011.2
20260503190041 16 360 6.4 30.6 0.00 0.00 0.00 51 1011.3
20260503184553 15 360 8.0 19.3 0.00 0.00 0.00 53 1011.7
20260503183055 13 360 6.4 22.5 0.00 0.00 0.00 56 1012.0
20260503181541 13 182 6.4 25.7 0.00 0.00 0.00 57 1012.4
20260503180040 13 360 4.8 32.2 0.00 0.00 0.00 58 1013.4
20260503174539 13 360 9.7 22.5 0.00 0.00 0.00 60 1013.7
20260503173038 12 360 6.4 17.7 0.00 0.00 0.00 63 1014.3
20260503171535 12 360 4.8 22.5 0.00 0.00 0.00 66 1014.6
20260503081554 7 0 0.0 4.8 0.00 0.00 0.00 57 1016.5
20260503071540 8 360 1.6 12.9 0.00 0.00 0.00 55 1016.8
20260503054547 8 360 1.6 8.0 0.00 0.00 0.00 54 1017.4